Weather History for Twin Falls, ID

Change the Weather History Date:

Friday, June 21, 2013

  Actual Average Record
Temperature  
Mean Temperature 60 °F -  
Max Temperature 72 °F 82 °F 95 °F (1993)
Min Temperature 48 °F 51 °F 41 °F (1989)
Degree Days  
Heating Degree Days 5 2  
Month to date heating degree days 50 77  
Since 1 June heating degree days 50 77  
Since 1 July heating degree days 5732 6161  
Cooling Degree Days 0 4  
Month to date cooling degree days 98 46  
Year to date cooling degree days 123 68  
Since 1 June cooling degree days 98 46  
Growing Degree Days 10 (Base 50)    
Moisture  
Dew Point 36 °F    
Average Humidity 42    
Maximum Humidity 61    
Minimum Humidity 22    
Precipitation  
Precipitation 0.03 in 0.03 in 0.03 in (2013)
Month to date precipitation 0.08 0.74  
Year to date precipitation 2.93 6.07  
Sea Level Pressure  
Sea Level Pressure 29.95 in    
Wind  
Wind Speed 10 mph (WSW)    
Max Wind Speed 21 mph    
Max Gust Speed 28 mph    
Visibility 10 miles    
Events Rain    
T = Trace of Precipitation, MM = Missing Value Source: NWS Daily Summary

Daily Weather History Graph

Daily Weather History Graph

Search for Another Location

Airport:

Trip Planner

Search our weather history database for the weather conditions in past years. The results will help you decide how hot, cold, wet, or windy it might be!

Date:

Astronomy

Jun. 21, 2013 Rise Set
Actual Time 6:00 AM MDT 9:18 PM MDT
Civil Twilight 5:25 AM MDT 9:53 PM MDT
Nautical Twilight 4:40 AM MDT 10:38 PM MDT
Astronomical Twilight 3:45 AM MDT 11:34 PM MDT
Moon 7:32 PM MDT (6/21) 4:21 AM MDT (6/21)
Length of Visible Light 16h 27m
Length of Day
15h 18m
Waxing Gibbous, 95% of the Moon is Illuminated
Jun 21
Waxing Gibbous
Jun 23
Full
Jun 29
Last Quarter
Jul 8
New
Jul 15
First Quarter

Hourly Weather History & Observations

Time (MDT) Temp. Dew Point Humidity Pressure Visibility Wind Dir Wind Speed Gust Speed Precip Events Conditions
12:53 AM 55.0 °F 35.1 °F 47% 29.90 in 10.0 mi West 18.4 mph - N/A   Scattered Clouds
1:53 AM 53.1 °F 36.0 °F 52% 29.91 in 10.0 mi SW 12.7 mph - N/A   Mostly Cloudy
2:53 AM 52.0 °F 36.0 °F 54% 29.90 in 10.0 mi SSW 9.2 mph - N/A   Mostly Cloudy
3:53 AM 48.9 °F 36.0 °F 61% 29.93 in 10.0 mi South 11.5 mph - N/A   Scattered Clouds
4:53 AM 53.1 °F 37.0 °F 55% 29.93 in 10.0 mi SW 13.8 mph - N/A   Overcast
5:53 AM 51.1 °F 37.9 °F 61% 29.97 in 10.0 mi SW 15.0 mph - N/A   Overcast
6:53 AM 48.9 °F 39.9 °F 71% 29.99 in 10.0 mi SW 13.8 mph - 0.00 in Rain Light Rain
7:53 AM 48.0 °F 43.0 °F 83% 30.00 in 10.0 mi SSE 6.9 mph - 0.03 in   Mostly Cloudy
8:53 AM 53.1 °F 44.1 °F 71% 29.99 in 10.0 mi South 6.9 mph - N/A   Mostly Cloudy
9:53 AM 57.9 °F 41.0 °F 53% 29.99 in 10.0 mi SSW 6.9 mph - N/A   Clear
10:53 AM 62.1 °F 39.9 °F 44% 29.97 in 10.0 mi WSW 8.1 mph - N/A   Mostly Cloudy
11:53 AM 62.1 °F 37.9 °F 41% 29.96 in 10.0 mi Calm Calm - N/A   Partly Cloudy
12:53 PM 63.0 °F 37.9 °F 40% 29.97 in 10.0 mi Variable 3.5 mph - N/A   Mostly Cloudy
1:53 PM 64.9 °F 37.0 °F 36% 29.96 in 10.0 mi Variable 4.6 mph 17.3 mph N/A   Partly Cloudy
2:53 PM 68.0 °F 35.1 °F 30% 29.95 in 10.0 mi Variable 6.9 mph - N/A   Clear
3:53 PM 69.1 °F 34.0 °F 27% 29.94 in 10.0 mi NW 10.4 mph - N/A   Mostly Cloudy
4:53 PM 70.0 °F 32.0 °F 25% 29.92 in 10.0 mi WNW 11.5 mph - N/A   Clear
5:53 PM 71.1 °F 30.9 °F 23% 29.91 in 10.0 mi WNW 12.7 mph 21.9 mph N/A   Clear
6:53 PM 69.1 °F 33.1 °F 26% 29.91 in 10.0 mi WNW 13.8 mph - N/A   Clear
7:53 PM 64.9 °F 33.1 °F 31% 29.94 in 10.0 mi NW 10.4 mph - N/A   Clear
8:53 PM 61.0 °F 34.0 °F 36% 29.95 in 10.0 mi West 6.9 mph - N/A   Clear
9:53 PM 57.0 °F 34.0 °F 42% 29.96 in 10.0 mi West 10.4 mph - N/A   Clear
10:53 PM 55.0 °F 34.0 °F 45% 29.98 in 10.0 mi SW 9.2 mph - N/A   Partly Cloudy
11:53 PM 52.0 °F 36.0 °F 54% 29.98 in 10.0 mi SW 11.5 mph - N/A   Clear